Time,TemperatureF,DewpointF,PressureIn,WindDirection,WindDirectionDegrees,WindSpeedMPH,WindSpeedGustMPH,Humidity,HourlyPrecipIn,Conditions,Clouds,dailyrainin,SoftwareType,DateUTC
2013-06-03 00:52:00,55.0,51.0,-100.00,NE,34,1.0,2.0,87,-99.99,,,0.00,,2013-06-03 07:52:00,
2013-06-03 01:52:00,54.0,50.0,-100.00,NW,311,1.0,2.0,87,-99.99,,,0.00,,2013-06-03 08:52:00,
2013-06-03 02:52:00,52.0,51.0,-100.00,North,0,0.0,2.0,97,-99.99,,,0.00,,2013-06-03 09:52:00,
2013-06-03 03:52:00,52.0,50.0,-100.00,North,0,0.0,1.0,92,-99.99,,,0.00,,2013-06-03 10:52:00,
2013-06-03 04:52:00,51.0,50.0,-100.00,North,0,0.0,0.0,98,-99.99,,,-99.99,,2013-06-03 11:52:00,
2013-06-03 05:52:00,50.0,50.0,-100.00,North,0,0.0,0.0,100,-99.99,,,-99.99,,2013-06-03 12:52:00,
2013-06-03 07:52:00,53.0,49.0,-100.00,South,187,1.0,7.0,87,-99.99,,,-99.99,,2013-06-03 14:52:00,
2013-06-03 08:53:00,54.0,50.0,-100.00,SE,141,2.0,7.0,87,-99.99,,,-99.99,,2013-06-03 15:53:00,
2013-06-03 09:53:00,56.0,50.0,-100.00,SE,144,2.0,5.0,81,-99.99,,,-99.99,,2013-06-03 16:53:00,
2013-06-03 10:52:00,59.0,50.0,-100.00,NW,308,1.0,3.0,71,-99.99,,,-99.99,,2013-06-03 17:52:00,
2013-06-03 11:52:00,60.0,49.0,-100.00,West,276,1.0,5.0,68,-99.99,,,-99.99,,2013-06-03 18:52:00,
2013-06-03 12:52:00,61.0,50.0,-100.00,WNW,289,3.0,8.0,66,-99.99,,,-99.99,,2013-06-03 19:52:00,
2013-06-03 13:52:00,63.0,49.0,-100.00,SW,224,2.0,7.0,61,-99.99,,,-99.99,,2013-06-03 20:52:00,
2013-06-03 14:52:00,66.0,50.0,-100.00,WSW,237,2.0,7.0,57,-99.99,,,-99.99,,2013-06-03 21:52:00,
2013-06-03 15:52:00,69.0,51.0,-100.00,SSW,210,1.0,7.0,52,-99.99,,,-99.99,,2013-06-03 22:52:00,
2013-06-03 16:52:00,71.0,50.0,-100.00,SW,230,2.0,6.0,48,-99.99,,,-99.99,,2013-06-03 23:52:00,
2013-06-03 17:52:00,72.0,48.0,-100.00,SSW,199,1.0,6.0,43,-99.99,,,-99.99,,2013-06-04 00:52:00,
2013-06-03 18:52:00,72.0,49.0,-100.00,NW,325,2.0,7.0,45,-99.99,,,-99.99,,2013-06-04 01:52:00,
2013-06-03 19:52:00,72.0,49.0,-100.00,WNW,292,3.0,7.0,44,-99.99,,,0.00,,2013-06-04 02:52:00,
2013-06-03 20:53:00,69.0,51.0,-100.00,NNW,327,6.0,9.0,52,-99.99,,,0.00,,2013-06-04 03:53:00,
2013-06-03 21:53:00,64.0,48.0,-100.00,NNW,327,6.0,9.0,57,-99.99,,,0.00,,2013-06-04 04:53:00,
2013-06-03 22:52:00,62.0,49.0,-100.00,NW,313,3.0,6.0,63,-99.99,,,0.00,,2013-06-04 05:52:00,
2013-06-03 23:52:00,60.0,49.0,-100.00,NW,305,3.0,5.0,68,-99.99,,,0.00,,2013-06-04 06:52:00,